Regional Weather Roundup
Issued by NWS Charleston, SC

Current Version | Previous Version | Text Only | Print | Product List | Glossary On
Versions: 1 2 3 4 5 6 7 8 9 10 11 12 13 14 15 16 17 18 19 20 21 22 23 24 25 26 27 28 29 30 31 32 33 34 35 36 37 38 39 40 41 42 43 44 45 46 47 48 49 50
000 ASUS42 KCHS 022113 RWRCHS REGIONAL WEATHER ROUNDUP NATIONAL WEATHER SERVICE CHARLESTON SC 500 PM EDT MON MAY 02 2016 NOTE: "FAIR" INDICATES FEW OR NO CLOUDS BELOW 12,000 FEET WITH NO SIGNIFICANT WEATHER AND/OR OBSTRUCTIONS TO VISIBILITY. NOT ALL STATIONS ARE QUALITY CONTROLLED. USE DATA WITH CAUTION... ESPECIALLY DEWPOINT OBSERVATIONS. SCZ027-030-031-034>040-042>050-022200- ...SOUTHEAST SOUTH CAROLINA... CITY SKY/WX TMP DP RH WIND PRES REMARKS N CHARLESTON CLOUDY 83 64 52 SW15 29.96F WATERFRONT PRK N/A 79 72 79 S8 29.95F MOUNT PLEASANT FAIR 81 72 74 S14 29.97F JOHNS ISLAND FAIR 77 73 88 S13 29.98S PINOPOLIS N/A 75 75 100 CALM 29.88S MONCKS CORNER FAIR 77 61 57 S10 29.95S SUMMERVILLE DRIZZLE 77 70 78 SW3 29.97S BEAUFORT MCAS TSTM 74 71 91 CALM 29.97F BEAUFORT ARPT FAIR 77 70 78 S9 29.97S HAZE HILTON HEAD IS NOT AVBL WALTERBORO CLOUDY 79 68 69 S8 29.96F ALLENDALE MOCLDY 79 66 65 SE14G24 29.93S THUNDER ...SOUTHERN MIDLANDS AND PEE DEE... CITY SKY/WX TMP DP RH WIND PRES REMARKS GEORGETOWN FAIR 81 66 61 S10 29.97F KINGSTREE FAIR 77 63 61 E7 29.93F ORANGEBURG MOSUNNY 85 67 54 S6 29.92F BARNWELL FAIR 88 70 55 S7 29.92F HX 92 AIKEN FAIR 72 68 88 SW7 29.97F MANNING LGT RAIN 75 70 83 SE6 29.93F COLUMBIA CLOUDY 76 70 82 NW5 29.91F SUMTER NOT AVBL FLORENCE CLOUDY 84 68 58 S10 29.91F MYRTLE BEACH MOSUNNY 79 66 65 S17 29.97F N MYRTLE BEACH MOSUNNY 77 70 79 S14 29.96F $$ GAZ063-065-086>088-099>101-113>116-118-119-134>141-150-022200- ...SOUTHEAST GEORGIA... CITY SKY/WX TMP DP RH WIND PRES REMARKS SAVANNAH ARPT CLOUDY 79 73 82 S12 29.96S HUNTER AAF NOT AVBL FORT STEWART NOT AVBL STATESBORO CLOUDY 82 68 62 S15 29.95R THUNDER SYLVANIA CLOUDY 83 75 77 S5 29.93F HX 90 CLAXTON FAIR 78 69 74 E5 29.93F ...CSRA...CENTRAL AND FAR SOUTHEAST GEORGIA... CITY SKY/WX TMP DP RH WIND PRES REMARKS THOMSON PTSUNNY 78 74 89 CALM 29.96F AUGUSTA-BUSH RAIN 73 70 90 NE8 29.91F FOG AUGUSTA-DANIEL CLOUDY 77 69 76 E6 29.93F SWAINSBORO FAIR 82 66 57 S6 29.94F VIDALIA RAIN 82 68 61 N5 29.93F EASTMAN FAIR 82 69 65 SW8 29.98R THUNDER HAZLEHURST FAIR 85 65 51 CALM 29.92F ALMA CLOUDY 84 64 50 SE5 29.93F WAYCROSS CLOUDY 86 70 58 NW6 29.93F HX 90 JESUP FAIR 84 70 61 S13G18 29.94F BAXLEY FAIR 81 70 69 S5 29.93F BRUNSWICK CLOUDY 84 73 70 S9 29.97F HX 91 SAINT SIMONS CLOUDY 78 73 84 S12G20 29.96F $$ SCZ027-028-034-036>038-045-046-048>050-GAZ119-141-022200- ...LAKE AND SUPPLEMENTAL COASTAL OBSERVATIONS... STATION/POSITION TIME TEMP WIND PRES WAVE SWELL AIR SEA DIR/SP/G HT/PER HT/PER/DIR (UTC) (F) (DEG/KT/KT) (MB) (FT/S) (FT/S/D) WINYAH BAY 1945 81 190/ 12 1015.0 LAKE MURRAY 2000 75 140/ 2/ 10 1013.5R ACE BASIN NERRS NOT AVBL FORT PULASKI 2000 76 74 170/ 8/ 14 1015.1F SAPELO ISLAND 2000 78 160/ 10 1015.0F $$ ANZ835-935-AMZ111-154-330-350-352-354-370-450-454-472-022200- ...C-MAN AND BUOY OBSERVATIONS... STATION/POSITION TIME TEMP WIND PRES WAVE SWELL AIR SEA DIR/SP/G HT/PER HT/PER/DIR (UTC) (F) (DEG/KT/KT) (MB) (FT/S) (FT/S/D) BUOY 41004 2050 76 76 190/ 10/ 12 1015.2F 3/ 6 2/ 6 BUOY 41008 NOT AVBL FOLLY BEACH CMAN 2000 76 190/ 10/ 12 1015.6F CAPERS NEARSHORE 2008 75 75 200/ 10/ 14 1015.1F FRIPP NEARSHORE 2008 75 74 180/ 10/ 14 1014.3F STATION/POSITION TIME TEMP WIND PRES WAVE SWELL AIR SEA DIR/SP/G HT/PER HT/PER/DIR (UTC) (F) (DEG/KT/KT) (MB) (FT/S) (FT/S/D) 5E ST. MARYS GA 2021 75 N/A 3/ 9 FRYING PAN BUOY 2000 75 74 170/ 8/ 10 1016.0F BUOY 41025 2050 75 74 210/ 17/ 19 1014.8F 4/11 3/100/11 CAPE LOOKOUT NC 2000 75 200/ 15/ 18 1015.2F BUOY 41002 2050 74 75 170/ 12/ 14 1018.6F 3/11 3/ 50/11 BUOY 41010 2020 78 79 150/ 14/ 16 1017.0F ST AUGUSTINE FL 2100 75 74 150/ 14/ 15 1015.2F $$

USA.gov is the U.S. government's official web portal to all federal, state and local government web resources and services.